Cape Cod CGAS, MA

1:49 AM EST on December 17, 2017 (GMT -0500)
Cape Cod Coast Guard Air Station

Weather History for KFMH - February, 2014

Change the Weather History Date:

Sunday, February 23, 2014

  Actual Average Record
Temperature  
Mean Temperature 42 °F -  
Max Temperature 50 °F 38 °F 57 °F (2017)
Min Temperature 33 °F 21 °F 6 °F (2015)
Degree Days  
Heating Degree Days 24    
Moisture  
Dew Point 35 °F    
Average Humidity 77    
Maximum Humidity 93    
Minimum Humidity 54    
Precipitation  
Precipitation 0.00 in - - ()
Sea Level Pressure  
Sea Level Pressure 29.93 in    
Wind  
Wind Speed 13 mph (WSW)    
Max Wind Speed 21 mph    
Max Gust Speed 23 mph    
Visibility 10 miles    
Events      
Averages and records for this station are not official NWS values.
T = Trace of Precipitation, MM = Missing Value Source: NWS Daily Summary

Daily Weather History Graph

Daily Weather History Graph

Search for Another Location

Airport or City:

Trip Planner

Search our weather history database for the weather conditions in past years. The results will help you decide how hot, cold, wet, or windy it might be!

Date:

Astronomy

Feb. 23, 2014 Rise Set
Actual Time 6:26 AM EST 5:25 PM EST
Civil Twilight 5:58 AM EST 5:53 PM EST
Nautical Twilight 5:25 AM EST 6:25 PM EST
Astronomical Twilight 4:53 AM EST 6:57 PM EST
Moon 1:23 AM EST (2/23) 11:22 AM EST (2/23)
Length of Visible Light 11h 55m
Length of Day
10h 59m
Last Quarter, 39% of the Moon is Illuminated
Feb 23
Last Quarter
Mar 1
New
Mar 8
First Quarter
Mar 16
Full
Mar 23
Last Quarter

Hourly Weather History & Observations

Time (EST) Temp. Windchill Dew Point Humidity Pressure Visibility Wind Dir Wind Speed Gust Speed Precip Events Conditions
12:55 AM 39.2 °F 30.2 °F 33.8 °F 81% 30.02 in 10.0 mi WSW 17.3 mph - N/A   Clear
2:55 AM 41.0 °F 31.6 °F 33.8 °F 76% 30.01 in 10.0 mi WSW 20.7 mph - N/A   Clear
3:55 AM 41.0 °F 32.2 °F 35.6 °F 81% 30.02 in 10.0 mi WSW 18.4 mph - N/A   Clear
4:55 AM 42.8 °F 35.4 °F 35.6 °F 76% 30.02 in 10.0 mi WSW 15.0 mph 23.0 mph N/A   Clear
5:59 AM 41.0 °F 33.1 °F 35.6 °F 81% 30.02 in 10.0 mi West 15.0 mph - N/A   Clear
6:50 AM 39.2 °F 34.2 °F 35.6 °F 87% 30.01 in 9.0 mi West 6.9 mph - N/A   Clear
7:59 AM 42.8 °F 36.6 °F 39.2 °F 87% 30.01 in 10.0 mi West 11.5 mph - N/A   Clear
8:59 AM 44.6 °F 37.8 °F 37.4 °F 76% 30.01 in 10.0 mi West 15.0 mph - N/A   Clear
9:55 AM 46.4 °F 39.8 °F 37.4 °F 71% 30.00 in 10.0 mi WSW 16.1 mph - N/A   Clear
10:55 AM 48.2 °F - 37.4 °F 66% 29.98 in 10.0 mi WSW 16.1 mph - N/A   Clear
11:50 AM 48.2 °F - 37.4 °F 66% 29.96 in 10.0 mi WSW 15.0 mph 21.9 mph N/A   Clear
12:56 PM 50.0 °F - 35.6 °F 58% 29.91 in 10.0 mi WSW 10.4 mph - N/A   Clear
1:56 PM 50.0 °F - 33.8 °F 54% 29.90 in 10.0 mi WSW 15.0 mph 20.7 mph N/A   Clear
3:00 PM 50.0 °F - 44.6 °F 82% 29.87 in 10.0 mi WSW 11.5 mph - N/A   Clear
3:50 PM 50.0 °F - 33.8 °F 54% 29.87 in 10.0 mi West 11.5 mph - N/A   Clear
4:50 PM 44.6 °F 39.7 °F 33.8 °F 66% 29.86 in 10.0 mi WSW 9.2 mph - N/A   Clear
5:51 PM 41.0 °F 38.0 °F 32.0 °F 70% 29.85 in 10.0 mi WSW 4.6 mph - N/A   Clear
6:55 PM 37.4 °F 33.8 °F 32.0 °F 81% 29.83 in 10.0 mi SSW 4.6 mph - N/A   Clear
7:52 PM 33.8 °F 29.6 °F 32.0 °F 93% 29.83 in 10.0 mi NW 4.6 mph - N/A   Mostly Cloudy
8:55 PM 33.8 °F - 30.2 °F 87% 29.82 in 10.0 mi Calm Calm - N/A   Mostly Cloudy
9:55 PM 33.8 °F - 32.0 °F 93% 29.82 in 10.0 mi Calm Calm - N/A   Clear
10:55 PM 33.8 °F - 32.0 °F 93% 29.79 in 10.0 mi Calm Calm - N/A   Overcast
11:55 PM 35.6 °F 32.8 °F 33.8 °F 93% 29.78 in 10.0 mi NNW 3.5 mph - N/A   Mostly Cloudy